[[[{"header":{"parameterUnit":"kt","parameterCategory":2,"dx":1,"dy":1,"la1":30.253999710083008,"la2":30.299108505249023,"lo1":-89.0895004272461,"lo2":-89.04439544677734,"nx":28,"ny":28,"refTime":"2022-10-26T21:00:00:Z","depth":0,"parameterNumber":1,"parameterNumberName":"U-component_of_WINDS"},"data":[-3.0538,-3.069,-3.0711,-3.0896,-3.0946,-3.1076,-3.113,-3.1202,-3.1265,-3.1424,-3.152,-3.1559,-3.1632,-3.1754,-3.186,-3.1876,-3.1919,-3.1956,-3.1968,-3.1779,-3.1755,-3.1731,-3.1695,-3.1966,-3.1966,-3.216,-3.2162,-3.2163,-3.0395,-3.0446,-3.055,-3.0665,-3.0754,-3.073,-3.0821,-3.0898,-3.1016,-3.1095,-3.1191,-3.1334,-3.1451,-3.1514,-3.163,-3.1704,-3.17,-3.1734,-3.1728,-3.174,-3.1539,-3.15,-3.1735,-3.1734,-3.1734,-3.1734,-3.1734,-3.1734,-3.014,-3.0231,-3.0312,-3.0426,-3.049,-3.0567,-3.0659,-3.0703,-3.0807,-3.0929,-3.0937,-3.1072,-3.1157,-3.131,-3.1368,-3.1475,-3.1442,-3.1487,-3.1498,-3.1508,-3.1516,-3.123,-3.1496,-3.1496,-3.1495,-3.1495,-3.1494,0,-2.9959,-2.9971,-3.0072,-3.018,-3.0264,-3.0351,-3.0434,-3.0491,-3.0525,-3.061,-3.0735,-3.0811,-3.0961,-3.1082,-3.1198,-3.1249,-3.1235,-3.1237,-3.1268,-3.1265,-3.1247,-3.1257,-3.0927,-3.1229,-3.1227,-3.1226,-3.1225,-3.1224,-2.9702,-2.9807,-2.9903,-2.9972,-3.0022,-3.0134,-3.0204,-3.0227,-3.0301,-3.0409,-3.0489,-3.0611,-3.0709,-3.0907,-3.0962,-3.1076,-3.107,-3.1183,-3.1087,-3.108,-3.1071,-3.1064,-3.1074,-3.1201,-3.1204,-3.1206,-3.1208,0,-2.9555,-2.959,-2.9759,-2.9845,-2.987,-2.9979,-3.0054,-3.0147,-3.0181,-3.0315,-3.0347,-3.0402,-3.0526,-3.0562,-3.0712,-3.0727,-3.0909,-3.0901,-3.0878,-3.0879,-3.0982,-3.0972,-3.1316,-3.1361,-3.1082,-3.1085,-3.1087,0,-2.935,-2.9487,-2.953,-2.9627,-2.978,-2.9798,-2.9949,-2.9993,-3.0067,-3.0172,-3.0161,-3.026,-3.0291,-3.0397,-3.042,-3.0576,-3.0604,-3.0625,-3.063,-3.0626,-3.0623,-3.0667,-3.0653,-3.0637,-3.0635,-3.0633,-3.0632,0,-2.9115,-2.93,-2.9457,-2.9505,-2.9612,-2.9685,-2.9734,-2.9816,-2.9886,-2.9984,-3.0029,-3.0143,-3.0205,-3.0293,-3.0321,-3.0255,-3.0512,-3.0427,-3.0534,-3.0533,-3.0589,-3.0585,-3.088,-3.063,-3.0629,-3.0629,-3.0628,0,-2.8955,-2.905,-2.9273,-2.936,-2.9409,-2.9513,-2.9623,-2.9721,-2.9809,-2.983,-2.9907,-2.9904,-3.0043,-2.9956,-3.0148,-3.0053,-3.0115,-3.0148,-3.0157,-3.0171,-3.0072,-3.0233,-3.0511,-3.0541,-3.0184,-3.0181,-3.0177,0,-2.8676,-2.891,-2.8927,-2.9139,-2.9252,-2.923,-2.9347,-2.9425,-2.9462,-2.9564,-2.9605,-2.9723,-2.9665,-2.9707,-2.9798,-2.9846,-2.9969,-2.9831,-2.998,-2.9985,-2.9955,-3.0212,-3.0243,-3.0445,-3.0131,-3.0136,-3.0139,0,-2.8465,-2.8592,-2.8629,-2.8684,-2.8789,-2.8885,-2.9019,-2.9139,-2.9205,-2.9296,-2.9409,-2.9576,-2.9539,-2.9609,-2.962,-2.9712,-2.9887,-2.9661,-2.9663,-2.9699,-3.0111,-3.0139,-3.0173,-2.9873,-2.9879,-2.9884,-3.0102,0,-2.8212,-2.8334,-2.8435,-2.8558,-2.8637,-2.8772,-2.8808,-2.8887,-2.8887,-2.8923,-2.9091,-2.9167,-2.9292,-2.934,-2.9343,-2.9542,-2.9515,-2.9475,-2.9393,-2.9561,-2.9634,-2.9663,-2.9281,-2.9279,-2.9277,-2.9275,0,0,-2.7937,-2.8112,-2.8127,-2.8257,-2.8324,-2.83,-2.8441,-2.8505,-2.8635,-2.8682,-2.8636,-2.8883,-2.8948,-2.9149,-2.9204,-2.9255,-2.9295,-2.9235,-2.9481,-2.9503,-2.9525,-2.9602,-2.9632,-2.9272,-2.9271,-2.9271,-2.927,0,-2.7852,-2.7914,-2.8053,-2.8118,-2.8216,-2.8247,-2.828,-2.8373,-2.8403,-2.8568,-2.8548,-2.8654,-2.8852,-2.8922,-2.8984,-2.9211,-2.9191,-2.9247,-2.9356,-2.9461,-2.9486,-2.9508,-2.9589,-2.9618,-2.9266,-2.9266,-2.9266,0,-2.7649,-2.7716,-2.7787,-2.7939,-2.8004,-2.8122,-2.8043,-2.8172,-2.826,-2.8229,-2.8394,-2.8442,-2.854,-2.8726,-2.8811,-2.8772,-2.9094,-2.9,-2.9012,-2.9023,-2.9127,-2.9157,-2.9184,-2.8829,-2.8828,-2.8826,0,0,-2.7571,-2.7684,-2.7764,-2.7924,-2.7965,-2.8013,-2.808,-2.8087,-2.8174,-2.8209,-2.827,-2.8357,-2.8472,-2.8547,-2.8657,-2.8856,-2.8878,-2.8944,-2.8965,-2.8981,-2.9001,-2.9109,-2.9139,-2.882,-2.8819,-2.8819,0,0,-2.7534,-2.7632,-2.7616,-2.7805,-2.7887,-2.7978,-2.8075,-2.8059,-2.8161,-2.815,-2.8171,-2.8195,-2.8369,-2.8418,-2.8328,-2.8629,-2.8547,-2.8569,-2.8591,-2.8617,-2.8638,-2.8622,-2.826,0,0,0,0,0,-2.7465,-2.7619,-2.7604,-2.7641,-2.7834,-2.7986,-2.8011,-2.803,-2.7971,-2.8047,-2.8095,-2.8069,-2.8373,-2.8294,-2.8332,-2.8432,-2.8737,-2.8752,-2.8766,-2.884,-2.8868,-2.8891,0,0,0,0,0,0,-2.748,-2.7525,-2.76,-2.7696,-2.774,-2.7981,-2.7884,-2.7894,-2.7963,-2.7955,-2.806,-2.8072,-2.8093,-2.8276,-2.831,-2.8405,-2.8249,-2.8743,-2.8755,-2.8767,-2.885,-2.8872,-2.8891,0,0,0,0,0,-2.7492,-2.7528,-2.7833,-2.7694,-2.7732,-2.7794,-2.7878,-2.7886,-2.794,-2.8015,-2.8026,-2.7948,-2.8095,-2.8125,-2.8296,-2.8389,-2.8225,-2.8238,-2.8751,-2.8761,-2.877,-2.8861,0,0,0,0,0,0,-2.75,-2.7536,-2.7841,-2.7853,-2.7637,-2.7781,-2.7804,-2.7879,-2.7996,-2.8008,-2.7903,-2.7896,-2.8098,-2.8121,-2.8144,-2.8382,-2.8206,-2.8219,-2.8227,-2.8758,-2.8766,-2.8773,0,0,0,0,0,0,-2.7517,-2.7547,-2.7847,-2.7774,-2.7778,-2.7769,-2.779,-2.7939,-2.7998,-2.7878,-2.7875,-2.7899,-2.8065,-2.8119,-2.8137,-2.8369,-2.8192,-2.8204,-2.8213,-2.8218,-2.8765,-2.8771,0,0,0,0,0,0,-2.753,-2.7556,-2.7771,-2.7774,-2.7778,-2.7918,-2.7901,-2.8099,-2.7932,-2.7873,-2.7918,-2.7912,-2.8064,-2.8082,-2.8132,-2.8357,-2.8366,-2.8192,-2.8201,-2.8207,-2.821,0,0,0,0,0,0,0,-2.7541,-2.7362,-2.7768,-2.7775,-2.7777,-2.7968,-2.7971,-2.7974,-2.7931,-2.7925,-2.792,-2.7914,-2.8123,-2.8136,-2.8149,-2.8347,0,0,-2.8191,-2.8197,0,0,0,0,0,0,0,0,-2.7352,-2.736,-2.7768,-2.7771,-2.7773,-2.7968,-2.7971,-2.7974,-2.793,-2.7925,-2.7921,-2.7917,-2.8126,-2.8137,-2.8148,0,0,0,0,0,0,0,0,0,0,0,0,0,0,0,-2.7768,-2.777,0,-2.7968,-2.7971,-2.7973,-2.7929,-2.7926,-2.7922,-2.7918,-2.8129,-2.8138,-2.8147,0,0,0,0,0,0,0,0,0,0,0,0,0,0,0,0,0,0,0,0,0,0,0,0,0,0,0,0,0,0,0,0,0,0,0,0,0,0,0,0,0,0,0,0,0,0,0,0,0,0,0,0,0,0,0,0,0,0,0,0,0,0,0,0,0,0,0,0,0]}],[{"header":{"parameterUnit":"kt","parameterCategory":2,"dx":1,"dy":1,"la1":30.253999710083008,"la2":30.299108505249023,"lo1":-89.0895004272461,"lo2":-89.04439544677734,"nx":28,"ny":28,"refTime":"2022-10-26T21:00:00:Z","depth":0,"parameterNumber":2,"parameterNumberName":"V-component_of_WINDS"},"data":[-3.397,-3.3992,-3.4015,-3.4049,-3.4074,-3.41,-3.4117,-3.4139,-3.4163,-3.4194,-3.4216,-3.4238,-3.4269,-3.4298,-3.432,-3.4329,-3.4337,-3.4328,-3.4339,-3.4363,-3.4367,-3.4372,-3.4369,-3.4329,-3.4329,-3.4312,-3.4312,-3.4312,-3.3982,-3.4008,-3.4034,-3.4074,-3.4095,-3.4117,-3.4149,-3.4164,-3.4186,-3.4215,-3.4239,-3.4267,-3.4292,-3.4326,-3.4353,-3.4361,-3.4371,-3.4366,-3.4365,-3.4369,-3.4395,-3.4392,-3.4357,-3.4357,-3.4357,-3.4357,-3.4357,-3.4357,-3.4009,-3.4022,-3.406,-3.4088,-3.4114,-3.414,-3.4154,-3.4184,-3.4208,-3.4241,-3.4263,-3.4287,-3.4319,-3.4362,-3.4382,-3.44,-3.4409,-3.441,-3.441,-3.4409,-3.4404,-3.4423,-3.4406,-3.4406,-3.4406,-3.4406,-3.4406,0,-3.4036,-3.4055,-3.4082,-3.4115,-3.4136,-3.4164,-3.4192,-3.4202,-3.4247,-3.4264,-3.4291,-3.431,-3.4345,-3.4371,-3.4401,-3.4422,-3.4444,-3.445,-3.445,-3.4439,-3.4425,-3.4431,-3.4471,-3.445,-3.445,-3.4451,-3.4451,-3.4451,-3.4064,-3.4077,-3.4129,-3.4144,-3.4166,-3.419,-3.4209,-3.4249,-3.4266,-3.4306,-3.4313,-3.4341,-3.4365,-3.4402,-3.4434,-3.446,-3.4471,-3.446,-3.4475,-3.4464,-3.4469,-3.4467,-3.4467,-3.4456,-3.4455,-3.4455,-3.4454,0,-3.4077,-3.4116,-3.4144,-3.4194,-3.4206,-3.4217,-3.4258,-3.4272,-3.4299,-3.4321,-3.4328,-3.437,-3.4395,-3.443,-3.4464,-3.4481,-3.4493,-3.4504,-3.4482,-3.4485,-3.4478,-3.4478,-3.4452,-3.445,-3.4493,-3.4493,-3.4492,0,-3.4116,-3.4131,-3.4188,-3.4202,-3.4219,-3.426,-3.4275,-3.4301,-3.4332,-3.4349,-3.4383,-3.4398,-3.4441,-3.446,-3.4485,-3.4502,-3.4509,-3.4522,-3.4528,-3.4519,-3.4517,-3.4527,-3.4528,-3.4545,-3.4545,-3.4545,-3.4545,0,-3.4131,-3.4181,-3.4204,-3.4221,-3.4276,-3.4285,-3.4308,-3.4344,-3.4361,-3.439,-3.4401,-3.443,-3.4446,-3.4467,-3.45,-3.4508,-3.4521,-3.4539,-3.4535,-3.4534,-3.4535,-3.4534,-3.4504,-3.4545,-3.4545,-3.4545,-3.4545,0,-3.4169,-3.42,-3.4228,-3.4275,-3.4286,-3.4301,-3.4334,-3.4355,-3.439,-3.4408,-3.443,-3.4457,-3.4476,-3.4491,-3.4517,-3.4519,-3.4531,-3.4547,-3.4547,-3.455,-3.4566,-3.4542,-3.4512,-3.4509,-3.4553,-3.4553,-3.4553,0,-3.4175,-3.4215,-3.4252,-3.4277,-3.4301,-3.4338,-3.4355,-3.4386,-3.4411,-3.4433,-3.4461,-3.4485,-3.4504,-3.4516,-3.4525,-3.4553,-3.4551,-3.4555,-3.4581,-3.4581,-3.457,-3.4542,-3.4528,-3.4515,-3.4555,-3.4554,-3.4554,0,-3.4185,-3.4255,-3.4258,-3.4279,-3.4329,-3.4349,-3.4368,-3.4403,-3.4415,-3.4447,-3.4462,-3.4498,-3.4513,-3.4533,-3.4558,-3.4565,-3.4554,-3.4581,-3.4582,-3.4573,-3.4559,-3.4546,-3.4543,-3.4568,-3.4568,-3.4568,-3.4556,0,-3.423,-3.4256,-3.4264,-3.4312,-3.4334,-3.4353,-3.4395,-3.4411,-3.4434,-3.4462,-3.4486,-3.4521,-3.4554,-3.4562,-3.4584,-3.4589,-3.4593,-3.461,-3.4627,-3.4609,-3.4605,-3.4604,-3.4628,-3.4629,-3.463,-3.463,0,0,-3.4225,-3.4264,-3.4306,-3.4328,-3.4349,-3.4389,-3.4405,-3.4429,-3.4478,-3.449,-3.45,-3.4555,-3.4582,-3.4607,-3.4605,-3.4619,-3.4623,-3.4628,-3.4617,-3.4616,-3.4614,-3.461,-3.4608,-3.4631,-3.4631,-3.4632,-3.4632,0,-3.4251,-3.4283,-3.43,-3.4328,-3.4372,-3.4401,-3.4405,-3.4454,-3.4473,-3.4499,-3.453,-3.4549,-3.4593,-3.4617,-3.4635,-3.4626,-3.4648,-3.4634,-3.4615,-3.4622,-3.462,-3.4618,-3.4613,-3.4611,-3.4633,-3.4633,-3.4633,0,-3.4267,-3.4305,-3.4319,-3.4371,-3.44,-3.4423,-3.4452,-3.4476,-3.4493,-3.4534,-3.4559,-3.4583,-3.462,-3.464,-3.465,-3.4659,-3.4668,-3.4673,-3.467,-3.4672,-3.4681,-3.4678,-3.4675,-3.4709,-3.4709,-3.4709,0,0,-3.4283,-3.4309,-3.4363,-3.438,-3.4396,-3.444,-3.4457,-3.4483,-3.4518,-3.4531,-3.4564,-3.4594,-3.462,-3.4635,-3.4662,-3.4678,-3.4687,-3.4681,-3.4677,-3.4674,-3.4674,-3.4682,-3.4679,-3.471,-3.471,-3.471,0,0,-3.429,-3.4355,-3.4373,-3.4399,-3.4431,-3.4484,-3.4491,-3.4514,-3.4543,-3.4545,-3.4588,-3.4598,-3.4617,-3.464,-3.464,-3.4668,-3.4684,-3.4685,-3.4652,-3.4649,-3.4645,-3.4639,-3.4673,0,0,0,0,0,-3.4339,-3.4347,-3.4363,-3.4374,-3.4439,-3.4475,-3.4484,-3.452,-3.4531,-3.4536,-3.4567,-3.4589,-3.4648,-3.465,-3.4659,-3.4657,-3.4715,-3.4714,-3.4713,-3.4676,-3.4671,-3.4667,0,0,0,0,0,0,-3.4344,-3.4357,-3.4363,-3.4415,-3.4431,-3.4475,-3.4501,-3.4512,-3.4531,-3.4535,-3.4583,-3.4591,-3.4621,-3.4648,-3.4655,-3.4653,-3.4671,-3.4714,-3.4714,-3.4713,-3.4674,-3.467,-3.4667,0,0,0,0,0,-3.4348,-3.4358,-3.4455,-3.4416,-3.4429,-3.4479,-3.4501,-3.451,-3.4526,-3.4574,-3.4583,-3.4552,-3.462,-3.4629,-3.4653,-3.4649,-3.4666,-3.4669,-3.4714,-3.4713,-3.4713,-3.4672,0,0,0,0,0,0,-3.435,-3.4366,-3.4458,-3.4463,-3.4416,-3.4477,-3.4489,-3.4509,-3.4564,-3.4573,-3.4545,-3.4548,-3.462,-3.4626,-3.4633,-3.4646,-3.4662,-3.4665,-3.4667,-3.4714,-3.4713,-3.4713,0,0,0,0,0,0,-3.436,-3.437,-3.4461,-3.446,-3.4465,-3.4476,-3.4485,-3.4511,-3.4564,-3.4532,-3.4536,-3.4546,-3.4609,-3.4624,-3.463,-3.4668,-3.4659,-3.4662,-3.4664,-3.4665,-3.4713,-3.4713,0,0,0,0,0,0,-3.4365,-3.4373,-3.4459,-3.4463,-3.4468,-3.4529,-3.4498,-3.4563,-3.4566,-3.4529,-3.4567,-3.4567,-3.4607,-3.4613,-3.4627,-3.4663,-3.4667,-3.4659,-3.4661,-3.4662,-3.4663,0,0,0,0,0,0,0,-3.4369,-3.4305,-3.4427,-3.4465,-3.447,-3.4512,-3.4513,-3.4515,-3.4566,-3.4566,-3.4566,-3.4567,-3.4645,-3.4648,-3.4651,-3.466,0,0,-3.4659,-3.466,0,0,0,0,0,0,0,0,-3.4302,-3.4304,-3.4427,-3.4429,-3.443,-3.4512,-3.4513,-3.4514,-3.4566,-3.4566,-3.4566,-3.4567,-3.4646,-3.4648,-3.465,0,0,0,0,0,0,0,0,0,0,0,0,0,0,0,-3.4428,-3.4428,0,-3.4512,-3.4513,-3.4514,-3.4566,-3.4566,-3.4566,-3.4567,-3.4646,-3.4648,-3.465,0,0,0,0,0,0,0,0,0,0,0,0,0,0,0,0,0,0,0,0,0,0,0,0,0,0,0,0,0,0,0,0,0,0,0,0,0,0,0,0,0,0,0,0,0,0,0,0,0,0,0,0,0,0,0,0,0,0,0,0,0,0,0,0,0,0,0,0,0]}]]]